User: anonymous   Login
Location: Antichan
(42.9728°N, 0.6667°E)
Time: 16:10:53
(UTC+00:00)
Language:

H-2A R/B - Orbit

View from above orbital plane
View from above orbital plane
View from above satellite
View from above satellite

Ground track
Ground track

The orbit data is extracted from the following two-line orbital elements,

1 39771U 14029F   20296.17907137  .00000565  00000-0  59187-4 0  9997
2 39771  98.2046 161.9034 0016684 184.9883 175.1172 14.93780854349579
Epoch (UTC): 22 October 2020 04:17:51
Eccentricity: 0.0016684
inclination: 98.2046°
perigee height: 574 km
apogee height: 598 km
right ascension of ascending node: 161.9034°
argument of perigee: 184.9883°
revolutions per day: 14.93780854
mean anomaly at epoch: 175.1172°
orbit number at epoch: 34957

The dashed part of the orbit path shows where the satellite is in the earth's shadow,  

DLR